WZZ0367 UKDD-UKLL

Flight info

Callsign WZZ0367
Flight time 1h 22m
Altitude 38000
Route OSLAN L984 GORKU
Aircraft A320/M-SDE3FGHIRWY/LB1

Departure

Time 2026-04-20 05:05
Airport Dnipro International Airport (UKDD)

Arrival

Time 2026-04-20 06:28
Airport Lviv International Airport (UKLL)
Time Latitude Longitude Altitude Speed Heading
2026-04-20 04:49 48.36790 35.09579 470 ft 0 kts 36°
2026-04-20 04:58 48.36791 35.09580 470 ft 1 kts 36°
2026-04-20 04:58 48.36805 35.09603 469 ft 6 kts 59°
2026-04-20 04:59 48.36786 35.09664 470 ft 8 kts 142°
2026-04-20 04:59 48.36748 35.09731 468 ft 10 kts 114°
2026-04-20 04:59 48.36719 35.09835 470 ft 12 kts 113°
2026-04-20 04:59 48.36683 35.09963 472 ft 15 kts 112°
2026-04-20 05:00 48.36655 35.10066 473 ft 17 kts 112°
2026-04-20 05:00 48.36607 35.10239 470 ft 19 kts 112°
2026-04-20 05:00 48.36551 35.10439 471 ft 22 kts 120°
2026-04-20 05:00 48.36434 35.10590 472 ft 23 kts 154°
2026-04-20 05:01 48.36282 35.10705 474 ft 21 kts 153°
2026-04-20 05:01 48.36143 35.10803 472 ft 23 kts 164°
2026-04-20 05:01 48.35974 35.10814 475 ft 26 kts 179°
2026-04-20 05:01 48.35802 35.10814 470 ft 20 kts 179°
2026-04-20 05:02 48.35730 35.10901 470 ft 15 kts 88°
2026-04-20 05:02 48.35731 35.11075 470 ft 18 kts 90°
2026-04-20 05:02 48.35731 35.11282 474 ft 21 kts 89°
2026-04-20 05:02 48.35730 35.11504 476 ft 21 kts 83°
2026-04-20 05:03 48.35730 35.11736 479 ft 23 kts 89°
2026-04-20 05:03 48.35747 35.11888 477 ft 6 kts 34°
2026-04-20 05:03 48.35755 35.11945 484 ft 5 kts 117°
2026-04-20 05:03 48.35726 35.11943 484 ft 5 kts 221°
2026-04-20 05:04 48.35731 35.11888 483 ft 7 kts 277°
2026-04-20 05:04 48.35730 35.11851 483 ft 7 kts 268°
2026-04-20 05:04 48.35731 35.11468 479 ft 72 kts 270°
2026-04-20 05:04 48.35732 35.10408 472 ft 130 kts 270°
2026-04-20 05:05 48.35726 35.08882 755 ft 151 kts 271°
2026-04-20 05:05 48.35725 35.07305 1435 ft 151 kts 273°
2026-04-20 05:05 48.35724 35.05716 2096 ft 152 kts 274°
2026-04-20 05:05 48.35725 35.04060 2635 ft 165 kts 274°
2026-04-20 05:06 48.35727 35.02224 3117 ft 182 kts 274°
2026-04-20 05:06 48.35732 35.00218 3579 ft 200 kts 274°
2026-04-20 05:06 48.35735 34.98032 4166 ft 218 kts 274°
2026-04-20 05:06 48.35739 34.95692 4797 ft 235 kts 274°
2026-04-20 05:07 48.35747 34.93140 5465 ft 252 kts 274°
2026-04-20 05:07 48.35758 34.90466 6327 ft 259 kts 274°
2026-04-20 05:07 48.35765 34.87747 7267 ft 262 kts 274°
2026-04-20 05:07 48.35773 34.84997 8217 ft 264 kts 274°
2026-04-20 05:08 48.35783 34.82192 9184 ft 266 kts 273°
2026-04-20 05:08 48.35789 34.79400 10100 ft 268 kts 273°
2026-04-20 05:08 48.35796 34.76529 10641 ft 283 kts 273°
2026-04-20 05:08 48.35806 34.73480 11078 ft 299 kts 273°
2026-04-20 05:09 48.35816 34.70343 11705 ft 307 kts 272°
2026-04-20 05:09 48.35819 34.67121 12503 ft 309 kts 272°
2026-04-20 05:09 48.35822 34.63876 13307 ft 312 kts 272°
2026-04-20 05:09 48.35825 34.60603 14070 ft 314 kts 272°
2026-04-20 05:10 48.35826 34.57305 14767 ft 316 kts 272°
2026-04-20 05:10 48.35829 34.53946 15471 ft 319 kts 272°
2026-04-20 05:10 48.35831 34.50603 16162 ft 321 kts 272°
2026-04-20 05:10 48.35830 34.47241 16856 ft 323 kts 272°
2026-04-20 05:11 48.35827 34.43851 17541 ft 325 kts 272°
2026-04-20 05:11 48.35824 34.40440 18248 ft 328 kts 272°
2026-04-20 05:11 48.35819 34.37000 18857 ft 330 kts 272°
2026-04-20 05:11 48.35813 34.33541 19480 ft 332 kts 272°
2026-04-20 05:12 48.35808 34.30056 20122 ft 334 kts 272°
2026-04-20 05:12 48.35908 34.26568 20762 ft 334 kts 279°
2026-04-20 05:12 48.36236 34.23102 21392 ft 336 kts 279°
2026-04-20 05:12 48.36566 34.19611 21981 ft 338 kts 279°
2026-04-20 05:13 48.36892 34.16099 22590 ft 340 kts 279°
2026-04-20 05:13 48.37217 34.12563 23200 ft 342 kts 279°
2026-04-20 05:13 48.37544 34.09008 23777 ft 344 kts 279°
2026-04-20 05:13 48.37874 34.05429 24270 ft 347 kts 279°
2026-04-20 05:14 48.38203 34.01821 24748 ft 349 kts 280°
2026-04-20 05:14 48.38530 33.98195 25201 ft 351 kts 280°
2026-04-20 05:14 48.38858 33.94538 25659 ft 354 kts 280°
2026-04-20 05:14 48.39188 33.90858 26099 ft 356 kts 280°
2026-04-20 05:15 48.39523 33.87152 26536 ft 359 kts 280°
2026-04-20 05:15 48.39861 33.83419 26964 ft 361 kts 280°
2026-04-20 05:15 48.40200 33.79664 27381 ft 363 kts 280°
2026-04-20 05:15 48.40538 33.75881 27786 ft 366 kts 280°
2026-04-20 05:16 48.40877 33.72073 28188 ft 368 kts 280°
2026-04-20 05:16 48.41214 33.68238 28581 ft 371 kts 280°
2026-04-20 05:16 48.41553 33.64384 28972 ft 373 kts 281°
2026-04-20 05:16 48.41894 33.60493 29366 ft 376 kts 281°
2026-04-20 05:17 48.42236 33.56586 29756 ft 378 kts 281°
2026-04-20 05:17 48.42579 33.52652 30129 ft 381 kts 281°
2026-04-20 05:17 48.42923 33.48688 30451 ft 383 kts 280°
2026-04-20 05:17 48.43265 33.44697 30768 ft 386 kts 280°
2026-04-20 05:18 48.43608 33.40681 31067 ft 388 kts 280°
2026-04-20 05:18 48.43951 33.36631 31365 ft 391 kts 279°
2026-04-20 05:18 48.44295 33.32559 31682 ft 393 kts 279°
2026-04-20 05:18 48.44640 33.28474 32082 ft 393 kts 279°
2026-04-20 05:19 48.44982 33.24395 32528 ft 392 kts 279°
2026-04-20 05:19 48.45324 33.20330 32959 ft 391 kts 279°
2026-04-20 05:19 48.45665 33.16266 33385 ft 391 kts 278°
2026-04-20 05:19 48.46006 33.12197 33812 ft 391 kts 278°
2026-04-20 05:20 48.46344 33.08141 34198 ft 390 kts 278°
2026-04-20 05:20 48.46679 33.04080 34507 ft 391 kts 278°
2026-04-20 05:20 48.47011 33.00007 34775 ft 392 kts 278°
2026-04-20 05:20 48.47395 32.95925 35038 ft 394 kts 280°
2026-04-20 05:21 48.47904 32.91858 35288 ft 395 kts 282°
2026-04-20 05:21 48.48489 32.87809 35527 ft 397 kts 283°
2026-04-20 05:21 48.49106 32.83745 35776 ft 398 kts 283°
2026-04-20 05:21 48.49723 32.79666 36018 ft 400 kts 283°
2026-04-20 05:22 48.50326 32.75565 36254 ft 401 kts 282°
2026-04-20 05:22 48.50903 32.71501 36485 ft 402 kts 282°
2026-04-20 05:22 48.51476 32.67360 36714 ft 404 kts 282°
2026-04-20 05:22 48.52040 32.63209 36939 ft 405 kts 282°
2026-04-20 05:23 48.52603 32.59032 37161 ft 406 kts 282°
2026-04-20 05:23 48.53164 32.54846 37383 ft 408 kts 282°
2026-04-20 05:23 48.53727 32.50651 37595 ft 409 kts 282°
2026-04-20 05:23 48.54292 32.46445 37804 ft 410 kts 282°
2026-04-20 05:24 48.54857 32.42223 37991 ft 412 kts 282°
2026-04-20 05:24 48.55986 32.33730 38048 ft 412 kts 282°
2026-04-20 05:25 48.57105 32.25257 38047 ft 412 kts 281°
2026-04-20 05:25 48.58220 32.16771 38051 ft 411 kts 282°
2026-04-20 05:26 48.59336 32.08298 38047 ft 411 kts 281°
2026-04-20 05:26 48.60440 31.99815 38050 ft 411 kts 281°
2026-04-20 05:27 48.61528 31.91331 38055 ft 411 kts 281°
2026-04-20 05:27 48.62609 31.82846 38045 ft 411 kts 281°
2026-04-20 05:28 48.63693 31.74356 38045 ft 411 kts 281°
2026-04-20 05:28 48.64774 31.65875 38046 ft 411 kts 281°
2026-04-20 05:29 48.65837 31.57440 38045 ft 411 kts 281°
2026-04-20 05:29 48.66902 31.48949 38046 ft 411 kts 281°
2026-04-20 05:30 48.67959 31.40447 38053 ft 411 kts 281°
2026-04-20 05:30 48.69015 31.31942 38051 ft 411 kts 281°
2026-04-20 05:31 48.70060 31.23431 38055 ft 411 kts 281°
2026-04-20 05:31 48.71101 31.14908 38060 ft 411 kts 281°
2026-04-20 05:32 48.72133 31.06391 38055 ft 411 kts 281°
2026-04-20 05:32 48.73156 30.97867 38057 ft 411 kts 281°
2026-04-20 05:33 48.74176 30.89353 38059 ft 411 kts 281°
2026-04-20 05:33 48.75187 30.80829 38052 ft 411 kts 281°
2026-04-20 05:34 48.76187 30.72302 38050 ft 411 kts 281°
2026-04-20 05:34 48.77685 30.59511 38047 ft 411 kts 281°
2026-04-20 05:35 48.78680 30.50985 38046 ft 411 kts 281°
2026-04-20 05:35 48.79670 30.42455 38045 ft 411 kts 281°
2026-04-20 05:36 48.80640 30.33980 38044 ft 411 kts 281°
2026-04-20 05:36 48.81607 30.25438 38042 ft 411 kts 280°
2026-04-20 05:37 48.82196 30.20239 38043 ft 411 kts 280°
2026-04-20 05:37 48.82305 30.19277 38043 ft 411 kts 281°
2026-04-20 05:38 48.82842 30.14540 38035 ft 411 kts 281°
2026-04-20 05:38 48.83649 30.07380 38034 ft 410 kts 280°
2026-04-20 05:39 48.84596 29.98829 38032 ft 410 kts 280°
2026-04-20 05:39 48.85536 29.90337 38034 ft 411 kts 280°
2026-04-20 05:40 48.86479 29.81785 38027 ft 410 kts 280°
2026-04-20 05:40 48.87420 29.73178 38022 ft 411 kts 280°
2026-04-20 05:41 48.88337 29.64622 38019 ft 411 kts 280°
2026-04-20 05:41 48.89254 29.56056 38016 ft 410 kts 280°
2026-04-20 05:42 48.90173 29.47493 38016 ft 410 kts 280°
2026-04-20 05:42 48.91082 29.38917 38013 ft 411 kts 280°
2026-04-20 05:43 48.91980 29.30345 38009 ft 411 kts 280°
2026-04-20 05:43 48.92874 29.21755 38011 ft 411 kts 280°
2026-04-20 05:44 48.93761 29.13172 38011 ft 411 kts 280°
2026-04-20 05:44 48.94644 29.04580 38005 ft 411 kts 280°
2026-04-20 05:45 48.95518 28.95984 38002 ft 411 kts 279°
2026-04-20 05:45 48.96384 28.87387 37993 ft 411 kts 279°
2026-04-20 05:46 48.97750 28.78954 37991 ft 411 kts 287°
2026-04-20 05:46 48.99325 28.70587 37989 ft 411 kts 286°
2026-04-20 05:47 49.00877 28.62251 37986 ft 411 kts 286°
2026-04-20 05:47 49.02431 28.53862 37987 ft 411 kts 286°
2026-04-20 05:48 49.03979 28.45464 37983 ft 412 kts 286°
2026-04-20 05:48 49.05517 28.37050 37982 ft 412 kts 286°
2026-04-20 05:49 49.07060 28.28631 37981 ft 412 kts 286°
2026-04-20 05:49 49.08602 28.20205 37989 ft 412 kts 286°
2026-04-20 05:50 49.10124 28.11767 37984 ft 413 kts 286°
2026-04-20 05:50 49.11644 28.03318 37981 ft 413 kts 286°
2026-04-20 05:51 49.13159 27.94863 37983 ft 413 kts 286°
2026-04-20 05:51 49.14663 27.86408 37980 ft 413 kts 286°
2026-04-20 05:52 49.16171 27.77938 37981 ft 413 kts 286°
2026-04-20 05:52 49.17672 27.69477 37976 ft 412 kts 285°
2026-04-20 05:53 49.19163 27.61025 37976 ft 412 kts 285°
2026-04-20 05:53 49.20643 27.52555 37973 ft 413 kts 285°
2026-04-20 05:54 49.22118 27.44080 37976 ft 412 kts 285°
2026-04-20 05:54 49.23594 27.35597 37976 ft 412 kts 285°
2026-04-20 05:55 49.25064 27.27122 37974 ft 412 kts 285°
2026-04-20 05:55 49.26518 27.18634 37971 ft 412 kts 285°
2026-04-20 05:56 49.27956 27.10138 37970 ft 412 kts 285°
2026-04-20 05:56 49.29397 27.01634 37967 ft 412 kts 285°
2026-04-20 05:57 49.30842 26.93140 37966 ft 412 kts 285°
2026-04-20 05:57 49.32285 26.84643 37966 ft 412 kts 285°
2026-04-20 05:58 49.33713 26.76140 37963 ft 412 kts 285°
2026-04-20 05:58 49.35125 26.67626 37962 ft 412 kts 285°
2026-04-20 05:59 49.36538 26.59115 37963 ft 412 kts 285°
2026-04-20 05:59 49.37949 26.50582 37492 ft 412 kts 285°
2026-04-20 06:00 49.38650 26.46319 36857 ft 412 kts 285°
2026-04-20 06:00 49.39347 26.42058 36266 ft 409 kts 284°
2026-04-20 06:00 49.40032 26.37860 35867 ft 403 kts 284°
2026-04-20 06:00 49.40704 26.33723 35427 ft 397 kts 284°
2026-04-20 06:01 49.41369 26.29629 34975 ft 392 kts 284°
2026-04-20 06:01 49.42023 26.25598 34528 ft 387 kts 284°
2026-04-20 06:01 49.42672 26.21606 34075 ft 382 kts 284°
2026-04-20 06:01 49.43308 26.17672 33571 ft 377 kts 284°
2026-04-20 06:02 49.43932 26.13793 33117 ft 370 kts 284°
2026-04-20 06:02 49.44542 26.09990 32684 ft 364 kts 284°
2026-04-20 06:02 49.45140 26.06245 32254 ft 358 kts 284°
2026-04-20 06:02 49.45729 26.02564 31836 ft 352 kts 284°
2026-04-20 06:03 49.46309 25.98945 31431 ft 346 kts 284°
2026-04-20 06:03 49.46878 25.95381 31038 ft 341 kts 283°
2026-04-20 06:03 49.47436 25.91868 30656 ft 336 kts 283°
2026-04-20 06:03 49.47986 25.88403 30275 ft 332 kts 283°
2026-04-20 06:04 49.48528 25.84977 29891 ft 327 kts 283°
2026-04-20 06:04 49.49061 25.81595 29511 ft 323 kts 283°
2026-04-20 06:04 49.49592 25.78214 29162 ft 319 kts 283°
2026-04-20 06:04 49.50109 25.74928 28834 ft 314 kts 283°
2026-04-20 06:05 49.50620 25.71686 28496 ft 309 kts 283°
2026-04-20 06:05 49.51123 25.68496 28176 ft 304 kts 283°
2026-04-20 06:05 49.51615 25.65356 27854 ft 299 kts 283°
2026-04-20 06:05 49.52095 25.62272 27540 ft 294 kts 283°
2026-04-20 06:06 49.52567 25.59218 27226 ft 293 kts 283°
2026-04-20 06:06 49.53038 25.56173 26902 ft 292 kts 283°
2026-04-20 06:06 49.53510 25.53126 26580 ft 292 kts 283°
2026-04-20 06:06 49.53980 25.50088 26264 ft 292 kts 283°
2026-04-20 06:07 49.54450 25.47056 25916 ft 291 kts 283°
2026-04-20 06:07 49.54919 25.44026 25580 ft 291 kts 283°
2026-04-20 06:07 49.55387 25.41002 25243 ft 290 kts 283°
2026-04-20 06:07 49.55854 25.37975 24895 ft 290 kts 283°
2026-04-20 06:08 49.56316 25.34958 24556 ft 289 kts 283°
2026-04-20 06:08 49.56777 25.31942 24205 ft 289 kts 283°
2026-04-20 06:08 49.57235 25.28927 23852 ft 289 kts 283°
2026-04-20 06:08 49.57691 25.25924 23500 ft 288 kts 283°
2026-04-20 06:09 49.58149 25.22919 23108 ft 287 kts 283°
2026-04-20 06:09 49.58602 25.19932 22748 ft 286 kts 283°
2026-04-20 06:09 49.59053 25.16952 22405 ft 285 kts 283°
2026-04-20 06:09 49.59503 25.13976 22051 ft 284 kts 283°
2026-04-20 06:10 49.60108 25.11090 21701 ft 283 kts 294°
2026-04-20 06:10 49.61084 25.08454 21361 ft 284 kts 304°
2026-04-20 06:10 49.62385 25.06160 21009 ft 285 kts 315°
2026-04-20 06:10 49.63966 25.04308 20652 ft 288 kts 326°
2026-04-20 06:11 49.65724 25.02812 20292 ft 288 kts 327°
2026-04-20 06:11 49.67474 25.01330 19932 ft 286 kts 327°
2026-04-20 06:11 49.69215 24.99850 19565 ft 285 kts 327°
2026-04-20 06:11 49.70949 24.98373 19219 ft 285 kts 327°
2026-04-20 06:12 49.72681 24.96896 18868 ft 284 kts 327°
2026-04-20 06:12 49.74409 24.95421 18510 ft 283 kts 327°
2026-04-20 06:12 49.76132 24.93948 18153 ft 283 kts 327°
2026-04-20 06:12 49.77833 24.92433 17784 ft 280 kts 322°
2026-04-20 06:13 49.79298 24.90512 17443 ft 274 kts 310°
2026-04-20 06:13 49.80097 24.89010 17228 ft 272 kts 303°
2026-04-20 06:13 49.81249 24.85567 16809 ft 269 kts 288°
2026-04-20 06:13 49.81766 24.82779 16488 ft 269 kts 285°
2026-04-20 06:14 49.82269 24.79999 16173 ft 268 kts 285°
2026-04-20 06:14 49.82605 24.78160 15959 ft 268 kts 285°
2026-04-20 06:14 49.83112 24.75397 15652 ft 267 kts 285°
2026-04-20 06:14 49.83619 24.72634 15338 ft 266 kts 285°
2026-04-20 06:15 49.84125 24.69873 15027 ft 266 kts 285°
2026-04-20 06:15 49.84629 24.67118 14714 ft 265 kts 285°
2026-04-20 06:15 49.85131 24.64373 14401 ft 264 kts 285°
2026-04-20 06:15 49.85629 24.61632 14091 ft 264 kts 285°
2026-04-20 06:16 49.86126 24.58898 13777 ft 263 kts 285°
2026-04-20 06:16 49.86621 24.56171 13440 ft 263 kts 285°
2026-04-20 06:16 49.87113 24.53444 13114 ft 263 kts 285°
2026-04-20 06:16 49.87603 24.50719 12808 ft 262 kts 285°
2026-04-20 06:17 49.88092 24.47993 12501 ft 262 kts 285°
2026-04-20 06:17 49.88581 24.45278 12181 ft 262 kts 285°
2026-04-20 06:17 49.89071 24.42558 11874 ft 261 kts 286°
2026-04-20 06:17 49.89560 24.39846 11559 ft 261 kts 286°
2026-04-20 06:18 49.90047 24.37133 11249 ft 261 kts 286°
2026-04-20 06:18 49.90530 24.34423 10934 ft 261 kts 286°
2026-04-20 06:18 49.91014 24.31702 10620 ft 261 kts 286°
2026-04-20 06:18 49.91497 24.28977 10307 ft 262 kts 286°
2026-04-20 06:19 49.91976 24.26267 10138 ft 258 kts 286°
2026-04-20 06:19 49.92445 24.23616 10015 ft 252 kts 286°
2026-04-20 06:19 49.92904 24.21014 9914 ft 251 kts 286°
2026-04-20 06:19 49.93376 24.18351 9526 ft 257 kts 286°
2026-04-20 06:20 49.93847 24.15698 9345 ft 253 kts 286°
2026-04-20 06:20 49.94312 24.13070 8971 ft 252 kts 286°
2026-04-20 06:20 49.94776 24.10440 8479 ft 253 kts 286°
2026-04-20 06:20 49.95238 24.07811 7986 ft 252 kts 286°
2026-04-20 06:21 49.95700 24.05179 7485 ft 252 kts 286°
2026-04-20 06:21 49.96162 24.02553 7057 ft 253 kts 286°
2026-04-20 06:21 49.96623 23.99932 6678 ft 253 kts 285°
2026-04-20 06:21 49.97081 23.97312 6364 ft 250 kts 285°
2026-04-20 06:22 49.97537 23.94693 5896 ft 249 kts 285°
2026-04-20 06:22 49.97987 23.92109 5475 ft 247 kts 286°
2026-04-20 06:22 49.98372 23.89528 5046 ft 243 kts 275°
2026-04-20 06:22 49.98209 23.86949 4595 ft 239 kts 252°
2026-04-20 06:23 49.97454 23.84691 4156 ft 236 kts 230°
2026-04-20 06:23 49.96324 23.82844 3728 ft 236 kts 225°
2026-04-20 06:23 49.95173 23.81038 3314 ft 235 kts 224°
2026-04-20 06:23 49.93856 23.79599 2891 ft 232 kts 197°
2026-04-20 06:24 49.92295 23.79513 2606 ft 221 kts 162°
2026-04-20 06:24 49.91043 23.80658 2499 ft 201 kts 135°
2026-04-20 06:24 49.90095 23.82122 2503 ft 183 kts 134°
2026-04-20 06:24 49.89241 23.83424 2481 ft 160 kts 135°
2026-04-20 06:25 49.88515 23.84521 2498 ft 136 kts 135°
2026-04-20 06:25 49.87830 23.85528 2494 ft 136 kts 135°
2026-04-20 06:25 49.87157 23.86525 2480 ft 136 kts 135°
2026-04-20 06:25 49.86478 23.87541 2395 ft 135 kts 135°
2026-04-20 06:26 49.85804 23.88555 2243 ft 135 kts 135°
2026-04-20 06:26 49.85132 23.89567 2083 ft 134 kts 135°
2026-04-20 06:26 49.84461 23.90578 1903 ft 134 kts 135°
2026-04-20 06:26 49.83795 23.91582 1722 ft 134 kts 135°
2026-04-20 06:27 49.83130 23.92586 1512 ft 134 kts 134°
2026-04-20 06:27 49.82465 23.93592 1318 ft 133 kts 135°
2026-04-20 06:27 49.81803 23.94587 1136 ft 133 kts 134°
2026-04-20 06:27 49.81156 23.95563 1066 ft 116 kts 135°
2026-04-20 06:28 49.80793 23.96113 1065 ft 48 kts 136°
2026-04-20 06:28 49.80611 23.96387 1067 ft 23 kts 130°
2026-04-20 06:28 49.80592 23.96583 1065 ft 19 kts 91°
2026-04-20 06:28 49.80543 23.96757 1066 ft 17 kts 158°
2026-04-20 06:29 49.80456 23.96674 1065 ft 17 kts 259°
2026-04-20 06:29 49.80517 23.96526 1065 ft 18 kts 317°
2026-04-20 06:29 49.80609 23.96387 1067 ft 19 kts 315°
2026-04-20 06:29 49.80714 23.96229 1066 ft 22 kts 312°
2026-04-20 06:30 49.80830 23.96061 1064 ft 24 kts 319°
2026-04-20 06:30 49.80975 23.96035 1068 ft 21 kts
2026-04-20 06:30 49.81109 23.95980 1066 ft 19 kts 312°
2026-04-20 06:30 49.81199 23.95844 1066 ft 16 kts 316°
2026-04-20 06:31 49.81255 23.95765 1066 ft 9 kts 329°
2026-04-20 06:31 49.81294 23.95795 1066 ft 7 kts 44°
2026-04-20 06:31 49.81315 23.95829 1067 ft 2 kts 45°
2026-04-20 06:31 49.81320 23.95837 1067 ft 0 kts 45°